Weather observations for the past three days for
Jackson County Airport
Imperial (Metric)
Date Time (edt) Wind (mph) Vis. (mi.) Weather Sky Cond. Temperature (ºF) Relative Humidity Wind Chill (°F) Heat Index (°F) Pressure Precipitation (in)
Air Dwpt 6 hour altimeter (in) sea level (mb) 1 hr 3 hr 6 hr
Max. Min.
21 12:15 NW 6 10.00 Partly Cloudy SCT022 SCT032 SCT070 82.4 72.5 72% 88 30.11 0.0
21 11:55 W 7 10.00 Mostly Cloudy BKN022 BKN031 81.7 73.4 76% 87 30.11 0.0
21 11:35 W 5 10.00 Mostly Cloudy SCT017 BKN024 BKN031 81.5 73.6 77% 87 30.11 0.0
21 11:15 W 6 10.00 Mostly Cloudy BKN015 BKN026 80.1 73.2 80% 84 30.11 0.0
21 10:55 W 6 10.00 Mostly Cloudy BKN015 BKN022 BKN030 79.5 73.8 83% 84 30.11 0.0
21 10:35 W 5 10.00 Mostly Cloudy BKN011 BKN031 78.3 74.5 88% 81 30.11 0.0
21 10:15 SW 6 10.00 Overcast OVC009 77.2 73.8 89% 79 30.11 0.0
21 09:55 SW 6 10.00 Overcast OVC009 75 73.6 95% 73 30.11 0.0
21 09:35 SW 6 10.00 Overcast OVC007 75.6 73.8 94% 75 30.11 0.0
21 09:15 SW 6 10.00 Mostly Cloudy BKN005 BKN023 BKN047 75.4 73.8 95% 74 30.11 0.0
21 08:55 S 7 10.00 Overcast OVC005 73.8 73.6 99% 30.12 0.0
21 08:35 SW 5 10.00 Overcast OVC005 73.4 0 0% 30.11 0.0
21 08:15 SW 5 10.00 Overcast OVC003 73.4 0 0% 30.11 0.0
21 07:55 SW 6 10.00 Overcast OVC003 73.4 0 73.8 72.3 0% 30.11 0.0 0.02 0.02
21 07:35 S 6 10.00 Overcast OVC003 71.6 0 0% 30.11 0.0 0.02
21 07:15 SW 6 5.00 Light Rain OVC003 71.6 0 0% 30.11 0.0 0.02
21 06:55 S 6 7.00 Overcast with Haze OVC003 71.6 0 0% 30.11 0.0
21 06:35 S 3 5.00 Overcast with Haze OVC005 73.4 0 0% 30.11 0.0
21 06:15 SW 3 3.00 Fog/Mist OVC005 73.4 73.4 100% 30.1 0.0
21 05:55 SW 6 10.00 Overcast OVC007 72.9 72.7 99% 30.1 0.0
21 05:35 SW 5 10.00 Overcast OVC007 72.9 72.5 99% 30.09 0.0
21 05:15 SW 5 10.00 Overcast OVC007 73 72.7 99% 30.09 0.0
21 04:55 SW 3 10.00 Overcast OVC007 73 72.9 99% 30.09 0.0
21 04:35 SW 5 10.00 Overcast BKN009 OVC048 73 72.9 99% 30.09 0.0
21 04:15 S 5 10.00 Overcast SCT009 SCT032 OVC048 73 72.9 99% 30.08 0.0
21 03:55 SW 3 10.00 Overcast OVC046 73.4 73.4 100% 30.09 0.0
21 03:35 SW 3 10.00 Overcast SCT008 BKN047 OVC080 73 73 100% 30.09 0.0
21 03:15 SW 3 10.00 Overcast OVC008 73.4 73.2 99% 30.1 0.0
21 02:55 SW 3 10.00 Overcast OVC006 73.4 0 0% 30.11 0.0
21 02:35 SW 6 10.00 Overcast OVC006 73.4 73.4 100% 30.11 0.0
21 02:15 SW 5 10.00 Overcast OVC004 73.4 0 0% 30.11 0.0
21 01:55 SW 6 10.00 Overcast OVC004 73.4 0 76.1 73 0% 30.12 0.0
21 01:35 SW 9 7.00 Overcast OVC004 73.4 0 0% 30.11 0.0
21 01:15 SW 8 10.00 Mostly Cloudy BKN004 73.4 0 0% 30.11 0.0
21 00:55 SW 5 10.00 Fair CLR 73.4 0 0% 30.11 0.0
21 00:35 S 5 10.00 Fair CLR 73.4 0 0% 30.11 0.0
21 00:15 Calm 10.00 Fair CLR 73.4 0 0% 30.11 0.0
20 23:55 SW 3 10.00 Fair CLR 73.4 0 0% 30.12 0.0
20 23:35 S 6 10.00 Partly Cloudy SCT110 74.3 74.3 100% 30.13 0.0
20 23:15 S 6 10.00 Mostly Cloudy SCT075 BKN110 74.8 74.3 98% 30.13 0.0
20 22:55 S 6 10.00 Mostly Cloudy BKN075 BKN080 74.8 74.1 98% 30.13 0.0
20 22:35 S 5 10.00 Overcast SCT047 OVC060 74.8 73.9 97% 30.13 0.0
20 22:15 S 5 10.00 Overcast SCT047 OVC060 74.7 73.8 97% 30.13 0.0
20 21:55 S 6 10.00 Mostly Cloudy BKN070 74.5 73.4 96% 30.12 0.0
20 21:35 S 3 10.00 Partly Cloudy SCT070 73.9 73.2 98% 30.11 0.0
20 21:15 Calm 10.00 Partly Cloudy SCT120 74.3 72.9 95% 30.1 0.0
20 20:55 Calm 10.00 Partly Cloudy SCT120 75.2 72.7 92% 74 30.1 0.0
20 20:35 S 5 10.00 Fair CLR 75 72.7 92% 74 30.09 0.0
20 20:15 S 5 10.00 Fair CLR 75.7 72.9 91% 75 30.09 0.0
20 19:55 S 6 10.00 Fair CLR 76.1 72.5 82.8 75.9 89% 76 30.09 0.0
20 19:35 S 8 10.00 Fair CLR 77.2 72.7 86% 79 30.09 0.0
20 19:15 S 8 10.00 Partly Cloudy SCT010 77.9 72.9 85% 80 30.09 0.0
20 18:55 S 9 10.00 Partly Cloudy SCT010 78.4 74.3 87% 81 30.1 0.0
20 18:35 S 6 10.00 Fair CLR 81.1 72.1 74% 86 30.09 0.0
20 18:15 Calm 10.00 Mostly Cloudy SCT027 SCT033 BKN050 81.5 71.8 72% 86 30.09 0.0
20 17:55 W 3 10.00 Overcast SCT022 BKN033 OVC120 81.7 72.1 73% 86 30.09 0.0
20 17:35 N 6 10.00 Mostly Cloudy SCT022 SCT065 BKN080 82.6 73.2 73% 88 30.09 0.0
20 17:15 SE 5 10.00 Overcast SCT025 BKN065 OVC080 81 74.5 81% 86 30.09 0.0
20 16:55 S 5 10.00 Overcast SCT031 BKN040 OVC060 79.2 73.9 84% 83 30.1 0.0
20 16:35 SE 7 10.00 Overcast OVC033 79.3 73.4 82% 83 30.1 0.0
20 16:15 W 8 10.00 Overcast SCT026 BKN036 OVC044 80.8 71.4 73% 85 30.1 0.0
20 15:55 NW 3 10.00 Mostly Cloudy SCT026 BKN045 81.3 72.3 74% 86 30.11 0.0
20 15:35 W 3 10.00 Partly Cloudy SCT080 81.3 72 73% 86 30.12 0.0
20 15:15 W 3 10.00 Partly Cloudy SCT024 SCT029 SCT080 82 72.7 73% 87 30.11 0.0
20 14:55 NW 6 10.00 Partly Cloudy SCT023 SCT028 SCT080 82 72.5 73% 87 30.11 0.0
20 14:35 W 5 10.00 Mostly Cloudy SCT021 BKN028 BKN033 81.5 72.1 73% 86 30.11 0.0
20 14:15 W 5 10.00 Mostly Cloudy BKN020 BKN029 BKN034 80.4 71.6 75% 84 30.12 0.0
20 13:55 W 6 5.00 Overcast with Haze BKN018 OVC024 79.5 72.1 80.4 70.3 78% 83 30.13 0.0 0.02
20 13:35 Calm 10.00 Mostly Cloudy BKN016 BKN120 79.2 72.7 81% 83 30.14 0.0
20 13:15 W 6 10.00 Mostly Cloudy BKN016 78.4 72.9 83% 81 30.15 0.0
20 12:55 Calm 10.00 Mostly Cloudy SCT011 BKN014 BKN080 77.7 72.5 84% 80 30.15 0.0
20 12:35 W 5 10.00 Overcast SCT009 BKN018 OVC080 76.5 72.9 89% 77 30.17 0.0
20 12:15 W 3 10.00 Overcast SCT010 BKN018 OVC090 75.2 72.7 92% 74 30.17 0.0
20 11:55 S 6 10.00 Overcast BKN010 OVC016 74.8 72.7 93% 30.17 0.0
20 11:35 SW 3 10.00 Overcast OVC012 74.5 72.5 94% 30.17 0.0
20 11:15 SW 3 10.00 Overcast BKN012 BKN090 OVC120 74.1 72.1 94% 30.17 0.0
20 10:55 Calm 10.00 Overcast BKN014 OVC110 73.8 72.1 95% 30.16 0.0 0.02
20 10:35 W 5 10.00 Overcast SCT005 OVC014 73.2 72 96% 30.16 0.0
20 10:15 Calm 10.00 Overcast BKN005 OVC012 73.4 72.5 97% 30.16 0.0
20 09:55 SW 5 10.00 Light Rain BKN005 OVC009 73.4 0 0% 30.16 0.0
20 09:35 SW 3 10.00 Overcast BKN005 OVC009 71.6 0 0% 30.16 0.0
20 09:15 Calm 10.00 Light Rain BKN005 OVC014 71.6 0 0% 30.16 0.0
20 08:55 Calm 10.00 Light Rain BKN005 OVC016 71.6 0 0% 30.16 0.0 0.02
20 08:35 Calm 5.00 Light Rain BKN005 OVC014 69.8 0 0% 30.15 0.0 0.02
20 08:15 Calm 7.00 Light Rain BKN005 BKN014 OVC110 69.8 0 0% 30.15 0.0 0.01
20 07:55 Calm 5.00 Rain OVC005 69.8 0 70.7 69.4 0% 30.14 0.0 0.07 0.08
20 07:35 Calm 5.00 Rain OVC005 69.8 0 0% 30.14 0.0 0.04
20 07:15 W 3 5.00 Rain OVC005 69.8 0 0% 30.14 0.0 0.01
20 06:55 Calm 10.00 Overcast OVC005 69.8 0 0% 30.13 0.0
20 06:35 W 3 10.00 Overcast OVC005 69.8 0 0% 30.13 0.0
20 06:15 NW 6 10.00 Overcast OVC007 69.8 0 0% 30.12 0.0
20 05:55 Calm 10.00 Overcast OVC007 69.8 0 0% 30.12 0.0
20 05:35 Calm 10.00 Overcast OVC007 69.8 0 0% 30.12 0.0
20 05:15 Calm 10.00 Overcast OVC009 69.8 0 0% 30.12 0.0
20 04:35 SW 3 10.00 Light Rain BKN007 BKN050 BKN120 69.8 0 0% 30.12 0.0
20 04:15 Calm 10.00 Overcast OVC005 69.8 0 0% 30.11 0.0
20 03:55 Calm 10.00 Overcast OVC005 69.8 0 0% 30.11 0.0 0.01
20 03:35 Calm 7.00 Overcast OVC005 69.8 0 0% 30.11 0.0 0.01
20 03:15 Calm 7.00 Overcast with Haze OVC005 69.8 0 0% 30.11 0.0
20 02:55 Calm 7.00 Overcast OVC005 69.8 0 0% 30.11 0.0
20 02:35 Calm 7.00 Overcast OVC005 69.8 0 0% 30.12 0.0
20 02:15 NW 3 10.00 Overcast BKN005 OVC110 69.8 0 0% 30.12 0.0
20 01:55 Calm 10.00 Partly Cloudy SCT005 SCT110 69.8 0 72.3 69.6 0% 30.13 0.0 0.32
20 01:35 Calm 10.00 Fair CLR 69.8 0 0% 30.13 0.0
20 01:15 Calm 10.00 Partly Cloudy SCT007 69.8 0 0% 30.13 0.0
20 00:55 Calm 10.00 Partly Cloudy SCT120 69.8 0 0% 30.14 0.0
20 00:35 Calm 10.00 Mostly Cloudy BKN120 69.8 0 0% 30.13 0.0
20 00:15 S 5 10.00 Mostly Cloudy SCT004 SCT013 BKN065 69.8 0 0% 30.14 0.0
19 23:55 S 6 10.00 Light Rain BKN004 BKN019 BKN120 69.8 0 0% 30.14 0.0 0.02
19 23:35 S 5 10.00 Light Rain SCT006 SCT027 SCT120 69.8 0 0% 30.14 0.0 0.02
19 23:15 S 5 7.00 Light Rain SCT006 SCT022 SCT120 69.8 0 0% 30.14 0.0 0.01
19 22:55 S 3 5.00 Rain SCT120 69.8 0 0% 30.13 0.0 0.05 0.3
19 22:35 S 5 10.00 Light Rain SCT003 SCT012 SCT120 69.8 0 0% 30.13 0.0 0.03
19 22:15 S 3 7.00 Light Rain SCT003 SCT021 BKN033 69.8 0 0% 30.12 0.0 0.02
19 21:55 SE 6 7.00 Light Rain SCT022 SCT048 SCT120 71.6 0 0% 30.12 0.0 0.13
19 21:35 SE 8 4.00 Rain BKN120 71.6 0 0% 30.12 0.0 0.1
19 21:15 SE 6 5.00 Rain BKN120 71.6 0 0% 30.12 0.0 0.04
19 20:55 SE 5 3.00 Rain Fog/Mist SCT004 SCT024 BKN095 71.6 0 0% 30.12 0.0 0.1
19 20:15 N 3 4.00 Rain SCT050 SCT060 OVC085 71.6 0 0% 30.12 0.0 0.04
19 19:55 E 5 2.00 Rain Fog/Mist SCT003 BKN060 OVC080 71.6 0 83.5 70.5 0% 30.11 0.0 0.08 0.99
19 19:35 NE 6 10.00 Light Rain SCT070 OVC080 71.6 0 0% 30.09 0.0 0.04
19 19:15 NW 3 5.00 Rain SCT080 BKN090 OVC110 71.6 0 0% 30.09 0.0 0.02
19 18:55 Calm 7.00 Light Rain Fog/Mist SCT080 OVC110 72.5 72.5 100% 30.08 0.0 0.05
19 18:35 Calm 4.00 Rain Fog/Mist OVC110 72.1 72.1 100% 30.07 0.0 0.03
19 18:15 W 3 7.00 Rain BKN100 BKN120 72.3 71.8 98% 30.07 0.0
19 17:55 N 6 10.00 Light Rain SCT005 SCT055 SCT110 72.7 72 98% 30.07 0.0
19 17:35 N 6 10.00 Mostly Cloudy SCT007 BKN055 BKN070 73 72.1 97% 30.08 0.0
19 17:15 N 9 10.00 Partly Cloudy SCT038 SCT110 73.2 72 96% 30.08 0.0
19 16:55 N 12 10.00 Mostly Cloudy BKN110 73.6 72.1 95% 30.07 0.0 0.86
19 16:35 N 8 10.00 Partly Cloudy SCT100 73.2 70.9 92% 30.07 0.0
19 16:15 N 8 10.00 Partly Cloudy SCT100 SCT120 74.1 71.1 90% 30.08 0.0
19 15:55 NE 14 10.00 Mostly Cloudy SCT008 SCT044 BKN120 73.4 71.6 94% 30.08 0.0 0.84
19 15:35 N 7 1.00 Heavy Rain Fog/Mist BKN009 OVC025 70.5 70.3 99% 30.11 0.0 0.68
19 15:15 N 14 10.00 Overcast BKN025 BKN036 OVC043 74.8 68 79% 30.09 0.0
19 14:55 N 16 G 21 10.00 Thunderstorm in Vicinity SCT025 BKN042 OVC050 78.4 68.7 72% 81 30.09 0.0 0.01
19 14:35 SW 3 7.00 Thunderstorm in Vicinity SCT022 BKN050 82.9 73 72% 89 30.09 0.0 0.01
19 14:15 S 8 10.00 Thunderstorm in Vicinity SCT022 SCT049 BKN060 82.6 73.4 74% 89 30.09 0.0
19 13:55 S 8 10.00 Mostly Cloudy BKN022 82.6 73 84.6 71.8 73% 88 30.1 0.0
19 13:35 S 6 10.00 Partly Cloudy SCT022 82.2 72.9 73% 88 30.11 0.0
19 13:15 S 9 10.00 Partly Cloudy SCT019 82.4 73.6 75% 88 30.12 0.0
19 12:55 S 5 10.00 Mostly Cloudy BKN019 81.3 73.2 77% 86 30.12 0.0
19 12:35 SW 5 10.00 Partly Cloudy SCT019 81 73 77% 86 30.12 0.0
19 12:15 S 5 10.00 Mostly Cloudy BKN019 80.1 72.7 78% 84 30.12 0.0
19 11:55 Calm 10.00 Mostly Cloudy BKN017 BKN023 80.1 72.5 78% 84 30.12 0.0
19 11:35 Calm 10.00 Partly Cloudy SCT017 79.9 72.5 78% 84 30.12 0.0
19 11:15 Calm 10.00 Mostly Cloudy SCT015 BKN046 79.5 72.3 79% 83 30.12 0.0
19 10:55 S 3 10.00 Overcast OVC013 78.8 73 83% 82 30.12 0.0
19 10:35 N 3 10.00 Mostly Cloudy BKN009 77.4 73.9 89% 79 30.12 0.0
19 10:15 Calm 10.00 Mostly Cloudy BKN007 76.1 72.5 89% 76 30.12 0.0
19 09:55 Calm 10.00 Overcast OVC007 75.7 72.9 91% 75 30.12 0.0
19 09:35 E 3 10.00 Overcast OVC007 75.4 72.9 92% 75 30.12 0.0
19 09:15 Calm 7.00 Overcast OVC005 75.2 73 93% 74 30.12 0.0
19 08:55 Calm 7.00 Overcast OVC005 73.8 72.7 96% 30.11 0.0
19 08:35 S 5 5.00 Fog/Mist OVC005 73.2 72.9 99% 30.11 0.0
19 08:15 Calm 5.00 Overcast with Haze OVC005 71.6 0 0% 30.1 0.0
19 07:55 Calm 5.00 Overcast with Haze OVC003 71.6 0 72.1 71.1 0% 30.09 0.0
19 07:35 Calm 4.00 Fog/Mist OVC003 71.6 0 0% 30.08 0.0
19 07:15 Calm 3.00 Fog/Mist OVC003 71.6 0 0% 30.07 0.0
19 06:55 Calm 3.50 Fog/Mist OVC003 71.6 0 0% 30.07 0.0
19 06:35 Calm 3.50 Fog/Mist OVC003 71.6 0 0% 30.06 0.0
19 06:15 Calm 2.50 Light Rain Fog/Mist OVC003 71.6 0 0% 30.06 0.0
19 05:55 NE 3 1.25 Fog/Mist OVC003 71.6 0 0% 30.05 0.0
19 05:35 N 5 3.00 Fog/Mist OVC003 71.6 0 0% 30.05 0.0
19 05:15 N 5 3.50 Fog/Mist OVC003 71.6 0 0% 30.04 0.0
19 04:55 N 6 1.50 Fog/Mist OVC003 71.6 0 0% 30.04 0.0
19 04:35 N 5 1.25 Fog/Mist OVC003 71.6 0 0% 30.04 0.0
19 04:15 N 5 2.50 Fog/Mist OVC003 71.6 0 0% 30.04 0.0
19 03:55 N 3 1.00 Fog/Mist OVC003 71.6 0 0% 30.04 0.0
19 03:35 Calm 2.50 Fog/Mist OVC003 71.6 0 0% 30.04 0.0
19 03:15 W 5 2.00 Fog/Mist OVC003 71.6 0 0% 30.05 0.0
19 02:55 W 5 2.50 Fog/Mist OVC003 71.6 0 0% 30.05 0.0
19 02:35 Calm 7.00 Overcast with Haze OVC003 71.6 0 0% 30.05 0.0
19 02:15 Calm 7.00 Overcast with Haze OVC003 71.6 0 0% 30.06 0.0
19 01:55 Calm 7.00 Mostly Cloudy BKN003 BKN100 71.6 0 72.9 71.1 0% 30.06 0.0
19 01:35 S 3 7.00 Mostly Cloudy BKN090 71.6 0 0% 30.07 0.0
19 01:15 S 6 7.00 Mostly Cloudy BKN090 71.6 0 0% 30.07 0.0
19 00:55 Calm 10.00 Partly Cloudy SCT070 SCT090 71.6 0 0% 30.07 0.0
19 00:35 Calm 10.00 Partly Cloudy SCT070 71.6 0 0% 30.06 0.0
19 00:15 SW 6 10.00 Fair CLR 71.6 0 0% 30.06 0.0
18 23:55 SW 5 10.00 Partly Cloudy SCT100 71.6 0 0% 30.06 0.0
18 23:35 Calm 10.00 Mostly Cloudy BKN110 71.6 71.6 100% 30.06 0.0
18 23:15 S 3 10.00 Overcast OVC100 72.1 72 99% 30.06 0.0
18 22:55 SW 3 10.00 Mostly Cloudy BKN100 71.6 0 0% 30.06 0.0
18 22:35 SW 3 10.00 Partly Cloudy SCT100 71.6 0 0% 30.06 0.0
18 22:15 W 6 10.00 Fair CLR 71.6 0 0% 30.05 0.0
18 21:55 W 5 10.00 Fair CLR 71.6 0 0% 30.05 0.0
18 21:35 W 5 10.00 Fair CLR 72 71.8 99% 30.05 0.0
18 21:15 W 5 10.00 Fair CLR 71.6 71.6 100% 30.04 0.0
18 20:55 NW 3 10.00 Fair CLR 72 71.2 98% 30.03 0.0
18 20:35 W 7 10.00 Fair CLR 72.3 71.8 98% 30.02 0.0
18 20:15 W 7 10.00 Fair CLR 72.5 71.8 98% 30.01 0.0
18 19:55 W 6 10.00 Partly Cloudy SCT120 72.3 71.2 92.1 72 96% 30.01 0.0 0.2
18 19:35 W 3 10.00 Partly Cloudy SCT120 72.9 71.6 96% 30.01 0.0
18 19:15 NW 5 10.00 Partly Cloudy SCT090 73.4 71.2 93% 30.01 0.0
18 18:55 NW 5 10.00 Partly Cloudy SCT120 73.8 72.3 95% 30.02 0.0
18 18:35 SW 5 10.00 Mostly Cloudy SCT040 SCT047 BKN120 73.8 72 94% 30.02 0.0
18 18:15 W 6 10.00 Light Rain SCT040 BKN055 BKN070 73.6 71.8 94% 30.02 0.0
18 17:55 W 12 G 16 10.00 Light Rain SCT055 BKN065 OVC100 73.2 72.1 96% 30.01 0.0
18 17:35 W 8 10.00 Light Rain SCT075 BKN100 BKN120 73.2 72 96% 30 0.0
18 17:15 W 5 10.00 Light Rain SCT070 SCT085 BKN120 73.2 72.9 99% 30.01 0.0
18 16:55 N 9 10.00 Light Rain BKN120 73 72 96% 30.01 0.0 0.2 0.2
18 16:35 N 14 10.00 Thunderstorm Rain SCT023 SCT050 BKN090 72 70.5 95% 30.01 0.0 0.19
18 16:15 NW 16 G 33 2.50 Thunderstorm Heavy Rain Fog/Mist SCT012 SCT027 BKN048 74.7 70.9 88% 30.01 0.0 0.05
18 15:55 W 7 10.00 Partly Cloudy SCT120 86.9 69.4 56% 91 29.98 0.0
18 15:35 W 8 10.00 Partly Cloudy SCT049 90.7 70.7 52% 97 29.98 0.0
18 15:15 W 8 10.00 Fair CLR 91.2 69.6 49% 97 29.99 0.0
18 14:55 W 7 10.00 Partly Cloudy SCT044 SCT050 SCT070 90.9 70.2 51% 97 30 0.0
18 14:35 W 9 10.00 Partly Cloudy SCT046 SCT070 90.9 72 54% 98 30 0.0
18 14:15 W 5 10.00 Partly Cloudy SCT041 SCT047 SCT060 90.3 70.9 53% 97 30.01 0.0
18 13:55 W 6 10.00 Partly Cloudy SCT041 SCT049 SCT070 88.9 72 89.6 73 57% 96 30.02 0.0
18 13:35 SW 8 G 16 10.00 Partly Cloudy SCT039 SCT065 88.9 71.2 56% 95 30.02 0.0
18 13:15 W 9 10.00 Partly Cloudy SCT037 SCT044 88.3 71.4 57% 95 30.03 0.0
18 12:55 W 13 G 16 10.00 Partly Cloudy SCT037 SCT044 87.4 70.5 57% 93 30.04 0.0
18 12:35 NW 12 10.00 Partly Cloudy SCT032 87.3 72.1 61% 94 30.05 0.0
Date Time (edt) Wind (mph) Vis. (mi.) Weather Sky Cond. Air Dwpt Max. Min. Relative Humidity Wind Chill (°F) Heat Index (°F) altimeter (in) sea level (mb) 1 hr 3 hr 6 hr
6 hour
Temperature (ºF) Pressure Precipitation (in)